Weather in Edissiya

Russia / Stavropol Krai     44°02′27″N   44°33′01″E
temp.,
°C
wind,
m/s
gust,
m/s
humid.,
%
clouds,
%
prec.,
mm/h
press.,
hPa
HPBL,
m
25 may, wed
wed2500:00+11wsw4894100 0.0 1015215
03:00+11w4992100 0.0 1016356
06:00+11w3888100 0.0 1018400
09:00+15wnw466867 0.0 10181154
12:00+18nw455865 0.6 10181617
15:00+18nnw3456100 1.2 10181239
18:00+18nne116197 0.0 1020437
21:00+13sw22735 0.1 102216
26 may, thu
thu2600:00+11w22775 0.0 102215
03:00+9w33795 0.0 102227
06:00+11w247739 0.0 1022100
09:00+17w22565 0.0 1022663
12:00+20wnw234524 0.0 10211961
15:00+20n335230 0.0 1020734
18:00+20ene11565 0.0 1020104
21:00+15ese2262100 0.0 102017
27 may, fri
fri2700:00+14se226462 0.0 101943
03:00+12s117033 0.0 101810
06:00+14w227511 0.0 101973
09:00+19wsw335898 0.0 1019543
12:00+23wsw23483 0.0 10181198
15:00+24nw44410 0.0 10171804
18:00+21nw36560 0.0 1018174
21:00+16nnw46677 0.0 101981
28 may, sat
sat2800:00+17w1268100 0.0 101918
03:00+16wsw1169100 0.0 101811
06:00+17s11710 0.0 101958
09:00+21ese23580 0.0 1017801
12:00+24ese46470 0.0 10161560
15:00+26ese46430 0.0 10141841
18:00+24ese59560 0.0 1014320
21:00+17e48600 0.0 1015131
29 may, sun
sun2900:00+14e33710 0.0 101441
03:00+13e22810 0.0 101416
06:00+15ene11788 0.0 101578
09:00+21n115974 0.0 1014481
12:00+26ne215092 0.0 1014912
15:00+27ne22476 0.0 10131242
18:00+27wnw115795 0.0 101459
21:00+22w116592 0.0 101511